This demonstration page uses our WeatherBlox Daily Observations layout. Learn more.

Left ArrowRight Arrow

39.12711, -84.51439

Hourly Observations for June 7, 2017

Temp ( °F °C ) Dew Point ( °F °C ) Humidity (%) Winds ( mph kmh ) Pressure ( in mb ) Visibility ( mi km ) Precip ( " mm )
12:53 am 00:53 Clear 57 13.9 54 12.2 90 90 Calm 29.96 1015 10 16 0.00 0.00
1:53 am 01:53 Clear 59 15 52 11.1 78 78 NE 3 6 29.96 1014 10 16 0.00 0.00
2:53 am 02:53 Clear 57 13.9 52 11.1 83 83 NE 5 7 29.95 1014 10 16 0.00 0.00
3:53 am 03:53 Mostly Cloudy 56 13.3 52 11.1 87 87 Calm 29.96 1015 10 16 0.00 0.00
4:53 am 04:53 Clear 53 11.7 53 11.7 100 100 Calm 29.96 1015 10 16 0.00 0.00
5:53 am 05:53 Clear 53 11.7 52 11.1 96 96 Calm 29.98 1015 10 16 0.00 0.00
6:53 am 06:53 Sunny 54 12.2 53 11.7 97 97 Calm 29.99 1016 10 16 0.00 0.00
7:53 am 07:53 Partly Cloudy 60 15.6 56 13.3 86 86 ENE 3 6 30.01 1016 9 14 0.00 0.00
8:53 am 08:53 Mostly Cloudy 63 17.2 55 12.8 76 76 NE 12 19 30.01 1016 10 16 0.00 0.00
9:53 am 09:53 Cloudy 64 17.8 54 12.2 70 70 NE 8 13 30.01 1016 10 16 0.00 0.00
10:53 am 10:53 Cloudy 66 18.9 54 12.2 65 65 NE 10 17 30.01 1016 10 16 0.00 0.00
11:53 am 11:53 Cloudy 66 18.9 53 11.7 63 63 NNE 14 22 30.01 1016 10 16 0.00 0.00
12:53 pm 12:53 Cloudy 64 17.8 54 12.2 70 70 NE 9 15 30.02 1017 10 16 0.00 0.00
1:53 pm 13:53 Cloudy 65 18.3 54 12.2 68 68 NE 12 19 30.02 1017 10 16 0.00 0.00
2:53 pm 14:53 Cloudy 63 17.2 53 11.7 70 70 NNE 13 20 30.03 1017 10 16 0.00 0.00
3:53 pm 15:53 Cloudy 65 18.3 52 11.1 63 63 NNE 12 19 30.02 1017 10 16 0.00 0.00
4:53 pm 16:53 Cloudy 64 17.8 52 11.1 65 65 NNE 12 19 30.02 1017 10 16 0.00 0.00
5:53 pm 17:53 Cloudy 65 18.3 52 11.1 63 63 NNE 10 17 30.03 1017 10 16 0.00 0.00
6:53 pm 18:53 Cloudy 64 17.8 51 10.6 63 63 NE 8 13 30.02 1017 10 16 0.00 0.00
7:53 pm 19:53 Cloudy 64 17.8 51 10.6 63 63 NE 7 11 30.03 1017 10 16 0.00 0.00
8:53 pm 20:53 Cloudy 63 17.2 51 10.6 65 65 NNE 7 11 30.04 1017 10 16 0.00 0.00
9:53 pm 21:53 Cloudy 61 16.1 51 10.6 70 70 NE 5 7 30.03 1017 10 16 0.00 0.00
10:53 pm 22:53 Cloudy 61 16.1 51 10.6 70 70 NE 6 9 30.04 1017 10 16 0.00 0.00
11:53 pm 23:53 Mostly Cloudy 58 14.4 51 10.6 78 78 NE 5 7 30.04 1017 10 16 0.00 0.00

Powered by AerisWeather